Weather reports worldwide

Advertisment
Benavente, Spain (8056): temperature & dewpoint: 28.05.2020 20:00:00 - 03.06.2020 20:00:00 (CEST)Benavente, Spain (8056): wind speed & gusts: 28.05.2020 20:00:00 - 03.06.2020 20:00:00 (CEST)Benavente, Spain (8056): wind direction: 28.05.2020 20:00:00 - 03.06.2020 20:00:00 (CEST)Benavente, Spain (8056): reduced air pressure: 28.05.2020 20:00:00 - 03.06.2020 20:00:00 (CEST)Benavente, Spain (8056): visibility: 28.05.2020 20:00:00 - 03.06.2020 20:00:00 (CEST)Benavente, Spain (8056): sunshine duration: 28.05.2020 20:00:00 - 03.06.2020 20:00:00 (CEST)Benavente, Spain (8056): precipitation: 28.05.2020 20:00:00 - 03.06.2020 20:00:00 (CEST)
Date & Time tt [°C] td [°C] ff [km/h] ff [kn] fx [km/h] fx [kn] dd ppp [hPa] vv [km] sd [min] rr [mm]
03.06.2020 20:00:00 20,1 14,4 11 6 24 13 NW 1004,6 20 0 -
03.06.2020 19:00:00 20,7 13,7 10 5 23 13 N 1004,5 20 3 0,0
03.06.2020 18:00:00 22,1 12,6 5 3 16 9 W 1004,6 20 3 0,0
03.06.2020 17:00:00 20,1 14,0 9 5 41 22 NW 1005,8 20 0 0,0
03.06.2020 16:00:00 20,4 17,1 5 3 20 11 W 1005,5 15 0 1,0
03.06.2020 15:00:00 20,0 15,9 8 4 29 16 NNE 1005,9 20 10 3,0
03.06.2020 14:00:00 25,2 12,7 14 7 32 17 SSW 1005,1 16 38 -
03.06.2020 13:00:00 24,5 12,4 9 5 22 12 S 1006,6 20 50 0,0
03.06.2020 12:00:00 23,2 11,9 6 4 19 10 S 1007,6 20 60 0,0
03.06.2020 11:00:00 21,5 11,8 6 3 17 9 SSW 1008,4 20 60 0,0
03.06.2020 10:00:00 20,2 11,9 4 2 12 7 WNW 1009,2 20 60 0,0
03.06.2020 09:00:00 18,2 12,2 5 3 10 5 W 1009,9 20 53 0,0
03.06.2020 08:00:00 16,9 11,8 3 1 8 5 NW 1010,1 20 26 -
03.06.2020 07:00:00 15,5 11,3 3 2 9 5 W 1010,6 20 0 0,0
03.06.2020 06:00:00 15,7 11,2 4 2 10 6 NNW 1010,6 15 0 0,0
03.06.2020 05:00:00 15,9 11,4 4 2 11 6 NNW 1010,8 20 0 0,0
03.06.2020 04:00:00 16,2 11,3 4 2 11 6 N 1011,2 20 0 0,0
03.06.2020 03:00:00 16,7 11,4 6 3 17 9 N 1011,6 20 0 0,0
03.06.2020 02:00:00 17,4 11,2 4 2 8 4 N 1012,0 20 0 -
03.06.2020 01:00:00 18,5 11,1 5 3 10 5 NNE 1011,8 20 0 0,0
03.06.2020 00:00:00 20,2 10,6 2 1 17 9 SSE 1011,8 20 0 0,0
02.06.2020 23:00:00 21,7 11,4 8 5 26 14 ENE 1011,3 20 0 0,0
02.06.2020 22:00:00 24,4 8,0 10 5 23 12 W 1009,3 20 0 0,0
02.06.2020 21:00:00 26,3 5,8 6 3 15 8 W 1008,3 20 0 0,0
02.06.2020 20:00:00 27,9 4,8 6 3 15 8 W 1007,9 20 14 -
02.06.2020 19:00:00 29,0 5,1 8 4 21 11 W 1007,7 20 35 0,0
02.06.2020 18:00:00 29,0 5,1 10 5 23 12 SSW 1008,4 20 59 0,0
02.06.2020 17:00:00 28,5 6,5 8 5 19 10 N 1009,0 20 60 0,0
02.06.2020 16:00:00 28,4 6,4 10 5 23 12 W 1009,7 20 56 0,0
02.06.2020 15:00:00 27,2 7,1 6 4 19 10 E 1010,4 20 60 0,0
02.06.2020 14:00:00 26,8 7,7 9 5 22 12 S 1011,1 20 59 -
02.06.2020 13:00:00 26,2 8,3 4 2 22 12 SW 1011,5 20 60 0,0
02.06.2020 12:00:00 24,4 12,6 6 3 16 8 NW 1012,5 20 60 0,0
02.06.2020 11:00:00 22,4 13,2 6 3 15 8 NW 1013,4 20 60 0,0
02.06.2020 10:00:00 19,4 12,8 5 3 12 6 N 1014,4 20 46 0,0
02.06.2020 09:00:00 17,5 12,6 8 4 16 9 NNE 1014,6 20 0 0,0
02.06.2020 08:00:00 16,9 12,6 6 3 20 11 NNE 1014,5 20 0 -
02.06.2020 07:00:00 16,5 12,4 4 2 11 6 NNW 1014,6 20 0 0,0
02.06.2020 06:00:00 16,7 11,8 7 4 14 8 NNE 1014,0 20 0 0,0
02.06.2020 05:00:00 17,2 12,1 5 3 11 6 NNE 1013,7 20 0 0,0
02.06.2020 04:00:00 18,4 12,4 4 2 10 5 ENE 1013,6 20 0 0,0
02.06.2020 03:00:00 19,2 12,6 2 1 8 4 E 1013,6 20 0 0,0
02.06.2020 02:00:00 20,3 12,7 2 1 6 3 ESE 1013,4 20 0 -
02.06.2020 01:00:00 21,3 12,4 2 1 18 10 E 1013,3 20 0 0,0
02.06.2020 00:00:00 22,6 11,3 7 4 13 7 WNW 1012,7 20 0 0,0
01.06.2020 23:00:00 23,3 10,4 4 2 10 6 WNW 1012,1 20 0 0,0
01.06.2020 22:00:00 23,2 11,6 4 2 8 4 NW - - 0 0,0
01.06.2020 21:00:00 25,4 9,7 5 3 13 7 WNW 1010,8 20 0 0,0
01.06.2020 20:00:00 26,4 7,8 8 4 16 8 WSW 1010,3 20 0 -
01.06.2020 19:00:00 27,5 7,4 6 4 20 11 W 1010,0 20 30 0,0
01.06.2020 18:00:00 27,6 8,0 8 4 22 12 WSW 1010,3 20 60 0,0
01.06.2020 17:00:00 27,5 7,8 7 4 20 11 WSW 1010,6 20 60 0,0
01.06.2020 16:00:00 26,5 7,0 7 4 21 11 SW 1011,1 20 60 0,0
01.06.2020 15:00:00 25,8 8,8 7 4 20 11 SW 1011,6 20 60 0,0
01.06.2020 14:00:00 25,1 7,7 8 5 18 10 S 1012,1 20 60 -
01.06.2020 13:00:00 23,2 11,6 4 2 11 6 W 1012,9 20 60 0,0
01.06.2020 12:00:00 21,7 12,0 6 3 17 9 ESE 1013,3 20 60 0,0
01.06.2020 11:00:00 19,6 13,3 4 2 14 8 E 1013,8 20 60 0,0
01.06.2020 10:00:00 17,9 13,0 5 3 18 10 NNE 1014,2 20 60 0,0
01.06.2020 09:00:00 16,3 12,8 6 3 17 9 N 1014,2 18 60 0,0
01.06.2020 08:00:00 14,2 12,2 6 3 9 5 N 1014,6 14 36 -
01.06.2020 07:00:00 12,6 11,2 4 2 9 5 NNW 1014,9 18 0 0,0
01.06.2020 06:00:00 12,8 10,9 3 2 6 3 NW 1014,2 17 0 0,0
01.06.2020 05:00:00 13,5 11,7 4 2 7 4 SE 1013,6 20 0 0,0
01.06.2020 04:00:00 14,0 11,9 3 1 7 4 NW 1013,9 20 0 0,0
01.06.2020 03:00:00 14,8 12,1 4 2 15 8 SSE 1013,2 20 0 0,0
01.06.2020 02:00:00 15,2 12,7 2 1 9 5 S 1012,9 20 0 -
01.06.2020 01:00:00 15,0 12,6 4 2 8 4 NNE 1013,3 20 0 0,0
01.06.2020 00:00:00 15,5 12,4 5 3 29 16 N 1013,5 20 0 0,0
31.05.2020 23:00:00 15,9 11,7 19 10 35 19 SW 1013,0 20 0 0,0
31.05.2020 22:00:00 15,9 11,7 18 10 36 19 S 1012,5 20 0 0,2
31.05.2020 21:00:00 16,4 13,0 16 9 43 23 SSW 1013,0 20 0 2,2
31.05.2020 20:00:00 17,9 12,7 10 5 40 21 SW 1011,4 20 0 -
31.05.2020 19:00:00 20,3 13,8 9 5 23 12 SSE 1008,8 20 0 0,4
31.05.2020 18:00:00 22,3 14,1 5 3 24 13 N 1008,2 20 0 0,2
31.05.2020 17:00:00 25,9 10,0 12 6 29 16 N 1007,9 20 39 0,0
31.05.2020 16:00:00 27,0 9,3 9 5 27 15 NNE 1007,2 20 57 0,0
31.05.2020 15:00:00 25,8 8,8 8 4 15 8 N 1008,1 20 46 0,0
31.05.2020 14:00:00 24,0 10,6 5 3 22 12 NE 1008,9 20 49 -
31.05.2020 13:00:00 21,7 11,7 8 4 14 7 NE 1010,1 20 26 0,0
31.05.2020 12:00:00 19,0 13,9 5 3 14 8 NE 1011,1 20 0 0,0
31.05.2020 11:00:00 17,6 13,9 5 3 13 7 NNE 1011,5 20 0 0,0
31.05.2020 10:00:00 17,7 13,1 5 3 29 16 WSW 1012,0 20 0 0,6
31.05.2020 09:00:00 18,4 12,8 8 4 16 9 W 1011,2 20 0 0,2
31.05.2020 08:00:00 18,6 11,4 5 3 16 8 WNW 1009,9 20 7 -
31.05.2020 07:00:00 17,7 11,4 2 1 13 7 W 1009,6 20 0 0,0
31.05.2020 06:00:00 18,4 11,2 6 4 21 12 W 1009,5 20 0 0,0
31.05.2020 05:00:00 18,6 10,9 5 3 13 7 SSW 1009,6 20 0 0,0
31.05.2020 04:00:00 18,7 10,8 5 3 12 7 ESE 1009,5 20 0 0,0
31.05.2020 03:00:00 20,1 10,2 5 3 21 12 W 1009,4 20 0 0,0
31.05.2020 02:00:00 20,4 9,9 6 4 20 11 S 1010,0 20 0 -
31.05.2020 01:00:00 21,2 9,4 13 7 22 12 SW 1010,1 20 0 0,0
31.05.2020 00:00:00 22,3 9,8 7 4 20 11 S 1010,0 20 0 0,0
30.05.2020 23:00:00 23,3 10,0 8 5 24 13 SSW 1009,8 20 0 0,0
30.05.2020 22:00:00 24,4 9,9 9 5 21 11 W 1008,5 20 0 0,0
30.05.2020 21:00:00 25,5 10,5 8 5 33 18 W 1008,0 20 0 0,0
30.05.2020 20:00:00 27,1 9,4 12 7 30 16 WSW 1007,5 20 0 -
30.05.2020 19:00:00 29,3 7,3 12 6 26 14 WSW 1006,3 20 0 0,0
30.05.2020 18:00:00 30,2 5,5 12 7 24 13 SW 1006,3 20 34 0,0
30.05.2020 17:00:00 31,5 3,4 10 5 38 21 SW 1006,3 19 57 0,0
30.05.2020 16:00:00 31,1 4,8 4 2 19 10 SE 1006,7 15 60 0,0
30.05.2020 15:00:00 29,7 5,8 8 4 19 10 S 1008,1 17 60 0,0
30.05.2020 14:00:00 27,8 5,9 5 3 13 7 SE 1009,1 20 60 -
30.05.2020 13:00:00 26,7 7,1 4 2 14 7 NW 1009,9 18 60 0,0
30.05.2020 12:00:00 24,3 8,3 4 2 18 10 NNE 1011,1 16 60 0,0
30.05.2020 11:00:00 21,8 8,3 5 3 19 10 NE 1012,1 16 60 0,0
30.05.2020 10:00:00 20,0 7,4 10 5 20 11 NE 1013,0 20 60 0,0
30.05.2020 09:00:00 18,6 7,4 9 5 21 11 NNE 1013,5 16 60 0,0
30.05.2020 08:00:00 16,4 9,3 6 3 16 9 N 1014,2 14 50 -
30.05.2020 07:00:00 14,6 7,0 9 5 16 8 N 1014,6 18 0 0,0
30.05.2020 06:00:00 15,0 6,2 7 4 13 7 N 1014,2 16 0 0,0
30.05.2020 05:00:00 15,0 7,0 4 2 8 5 NNE 1014,8 17 0 0,0
30.05.2020 04:00:00 16,5 7,4 3 2 16 8 N 1014,3 17 0 0,0
30.05.2020 03:00:00 17,7 7,4 6 3 19 11 NNE 1014,0 16 0 0,0
30.05.2020 02:00:00 18,5 7,6 9 5 18 10 NE 1013,9 16 0 -
30.05.2020 01:00:00 19,6 9,4 6 3 23 12 ENE 1013,2 15 0 0,0
30.05.2020 00:00:00 21,9 9,8 10 6 31 17 E 1012,4 18 0 0,0
29.05.2020 23:00:00 22,8 7,7 4 2 14 7 NNE 1011,5 16 0 0,0
29.05.2020 22:00:00 25,3 5,9 8 4 14 8 W 1010,0 20 4 0,0
29.05.2020 21:00:00 28,6 3,4 3 1 8 4 N 1009,1 20 41 0,0
29.05.2020 20:00:00 29,8 -1,7 5 3 14 8 NE 1008,7 20 8 -
29.05.2020 19:00:00 30,9 -0,7 9 5 20 11 ENE 1008,5 20 54 0,0
29.05.2020 18:00:00 31,2 3,2 4 2 17 9 ESE 1008,9 20 60 0,0
29.05.2020 17:00:00 31,2 4,1 6 4 18 10 NE 1009,1 20 60 0,0
29.05.2020 16:00:00 30,4 6,2 7 4 18 10 E 1009,8 20 60 0,0
29.05.2020 15:00:00 30,5 5,6 7 4 21 11 SW 1010,4 20 60 0,0
29.05.2020 14:00:00 29,2 7,7 5 3 17 9 SSE 1011,5 20 60 -
29.05.2020 13:00:00 27,7 8,5 6 4 18 10 N 1012,7 20 60 0,0
29.05.2020 12:00:00 25,6 9,4 7 4 20 11 NE 1014,0 20 60 0,0
29.05.2020 11:00:00 23,3 9,7 5 3 14 8 N 1015,0 19 60 0,0
29.05.2020 10:00:00 20,6 10,4 7 4 14 7 NNE 1016,2 19 60 0,0
29.05.2020 09:00:00 18,7 10,3 6 3 14 7 NNE 1016,8 18 60 0,0
29.05.2020 08:00:00 16,5 11,2 6 3 13 7 N 1017,8 20 49 -
29.05.2020 07:00:00 14,9 11,3 5 3 12 7 N 1018,2 20 0 0,0
29.05.2020 06:00:00 15,1 11,7 6 3 13 7 N 1017,9 20 0 0,0
29.05.2020 05:00:00 16,2 12,1 7 4 19 10 N 1017,9 19 0 0,0
29.05.2020 04:00:00 16,8 12,1 7 4 14 7 NNW 1018,0 20 0 0,0
29.05.2020 03:00:00 17,7 10,8 5 3 12 6 NW 1018,0 20 0 0,0
29.05.2020 02:00:00 18,6 11,4 5 3 14 7 NNW 1017,8 20 0 -
29.05.2020 01:00:00 19,7 11,7 7 4 12 7 N 1017,6 20 0 0,0
29.05.2020 00:00:00 19,9 12,1 7 4 13 7 N 1017,6 20 0 0,0
28.05.2020 23:00:00 22,5 11,2 8 4 21 12 NNE 1016,7 20 0 0,0
28.05.2020 22:00:00 23,9 8,3 4 2 11 6 E 1016,0 20 0 0,0
28.05.2020 21:00:00 27,7 8,5 4 2 13 7 NNW 1014,9 20 41 0,0
28.05.2020 20:00:00 29,6 4,3 5 3 10 5 NE 1014,5 20 6 -

tt = temperature
td = dewpoint
ff = wind speed
fx = gusts
dd = wind direction
ppp = reduced air pressure
vv = visibility
sd = sunshine duration
rr = precipitation

Next stations